[[{"header":{"parameterUnit":"m.s-1","parameterCategory":1,"la1":30.2991,"la2":30.254,"lo1":-89.0895,"lo2":-89.0444,"dy":0.0017,"dx":0.0017,"nx":28,"ny":28,"refTime":"2023-08-10T21:00:00:Z","depth":0,"parameterNumber":2,"parameterNumberName":"U-component_of_WINDS"},"data":[0,0,0,0,0,0,0,0,0,0,0,0,0,0,0,0,0,0,0,0,0,0,0,0,0,0,0,0,0,0,0,0,0,0,0,0,0,0,0,0,0,0,0,0,0,0,0,0,0,0,0,0,0,0,0,0,0,0,5.9024,5.9025,0,5.9166,5.9167,5.9169,5.9117,5.9114,5.9111,5.9108,5.925,5.9257,5.9264,0,0,0,0,0,0,0,0,0,0,0,0,0,5.8703,5.8709,5.9024,5.9026,5.9027,5.9165,5.9167,5.9169,5.9118,5.9114,5.911,5.9106,5.9248,5.9256,5.9264,0,0,0,0,0,0,0,0,0,0,0,0,0,5.8843,5.8711,5.9023,5.9018,5.9019,5.9165,5.9168,5.917,5.9118,5.9114,5.9109,5.9104,5.9245,5.9255,5.9265,5.9424,0,0,5.9296,5.9301,0,0,0,0,0,0,0,0,5.8835,5.8855,5.9017,5.9019,5.902,5.9119,5.9107,5.9255,5.912,5.9081,5.9108,5.9102,5.921,5.9223,5.926,5.9431,5.9437,5.9297,5.9303,5.9308,5.9311,0,0,0,0,0,0,0,5.8826,5.8849,5.908,5.902,5.9021,5.9007,5.9022,5.9134,5.9171,5.9084,5.908,5.9098,5.921,5.925,5.9263,5.9439,5.9297,5.9306,5.9312,5.9316,5.9742,5.9747,0,0,0,0,0,0,5.8816,5.8841,5.9075,5.9084,5.8914,5.9017,5.9033,5.9092,5.9169,5.9176,5.9102,5.9095,5.9235,5.9251,5.9268,5.9455,5.9308,5.9317,5.9323,5.9737,5.9743,5.9749,0,0,0,0,0,0,5.8809,5.8837,5.907,5.8962,5.899,5.9028,5.9094,5.9097,5.9137,5.9183,5.9189,5.9137,5.9232,5.9253,5.9385,5.9459,5.9322,5.9331,5.9731,5.9739,5.9746,5.9833,0,0,0,0,0,0,5.88,5.8835,5.8897,5.8964,5.8996,5.9186,5.9099,5.9104,5.9155,5.9148,5.9217,5.9224,5.923,5.937,5.9395,5.9471,5.9339,5.9724,5.9734,5.9743,5.9823,5.9843,5.9859,0,0,0,0,0,5.8789,5.8917,5.8901,5.8929,5.9075,5.919,5.9209,5.9214,5.9162,5.9223,5.9252,5.9222,5.9448,5.9384,5.9411,5.9492,5.9719,5.9731,5.9743,5.9815,5.9839,5.9859,0,0,0,0,0,0,5.8858,5.8925,5.8908,5.9062,5.9121,5.9181,5.9259,5.9239,5.9314,5.9303,5.9306,5.9322,5.9456,5.9487,5.9415,5.9647,5.9575,5.9593,5.9621,5.9644,5.9661,5.9649,5.9347,0,0,0,0,0,5.8891,5.8981,5.9034,5.9164,5.9194,5.9222,5.9272,5.9271,5.9332,5.9357,5.9395,5.9454,5.9538,5.9593,5.9673,5.9829,5.984,5.9897,5.9915,5.9929,5.9944,6.0024,6.0048,5.9787,5.9787,5.9787,0,0,5.896,5.9008,5.9064,5.9179,5.9224,5.9315,5.9243,5.9343,5.9409,5.9371,5.9496,5.9527,5.9593,5.9736,5.9801,5.9766,6.0019,5.9944,5.9956,5.9962,6.0038,6.0063,6.0085,5.9795,5.9794,5.9792,0,0,5.9131,5.9178,5.9289,5.9336,5.9406,5.9423,5.945,5.9513,5.9532,5.9658,5.963,5.9709,5.9855,5.9901,5.9944,6.0131,6.0104,6.0157,6.0249,6.0327,6.0347,6.0365,6.0428,6.0451,6.0172,6.0172,6.0172,0,5.9207,5.9344,5.9348,5.945,5.9499,5.947,5.958,5.9626,5.9718,5.9752,5.9712,5.9892,5.9935,6.0086,6.0131,6.0168,6.0196,6.0147,6.0344,6.0363,6.0379,6.0439,6.0463,6.0177,6.0177,6.0176,6.0176,0,5.9432,5.9527,5.9608,5.9697,5.9756,5.9862,5.9881,5.994,5.9933,5.9954,6.008,6.0131,6.0218,6.0255,6.025,6.0404,6.038,6.0343,6.027,6.041,6.0465,6.0489,6.0185,6.0183,6.0182,6.018,0,0,5.9649,5.9739,5.9768,5.9807,5.9881,5.9953,6.0057,6.0143,6.0191,6.0256,6.034,6.0463,6.0428,6.0476,6.0476,6.0545,6.0684,6.0499,6.05,6.0528,6.0853,6.0877,6.0904,6.0669,6.0673,6.0677,6.0846,0,5.9823,6.0004,6.0011,6.0175,6.0261,6.0233,6.0322,6.0376,6.0398,6.0472,6.0496,6.0581,6.0531,6.0559,6.0627,6.0653,6.0749,6.0642,6.0743,6.0747,6.0724,6.0934,6.0961,6.1119,6.0868,6.0872,6.0875,0,6.005,6.012,6.0294,6.0352,6.0388,6.0469,6.0546,6.0619,6.0678,6.0689,6.0742,6.0731,6.0834,6.076,6.0899,6.0826,6.0868,6.0887,6.0893,6.09,6.0817,6.0942,6.1169,6.1191,6.091,6.0907,6.0904,0,6.0185,6.0325,6.0445,6.0479,6.0552,6.0608,6.0641,6.0696,6.0746,6.0814,6.0846,6.0925,6.0967,6.1027,6.1037,6.0983,6.1175,6.1103,6.1183,6.1183,6.1222,6.1219,6.1455,6.1257,6.1256,6.1256,6.1255,0,6.0377,6.0483,6.0506,6.058,6.0697,6.0703,6.0817,6.0846,6.0894,6.0971,6.0953,6.1025,6.1035,6.1109,6.1118,6.1229,6.125,6.1258,6.1259,6.1258,6.1256,6.1283,6.1271,6.1262,6.1261,6.1259,6.1258,0,6.0547,6.0568,6.0696,6.0755,6.0771,6.0854,6.0903,6.0972,6.0992,6.1089,6.1112,6.1142,6.1228,6.1244,6.1346,6.1351,6.1483,6.1474,6.1462,6.146,6.1538,6.1528,6.1796,6.1829,6.1613,6.1615,6.1617,0,6.0666,6.0746,6.0813,6.0863,6.0898,6.098,6.1031,6.1039,6.1092,6.1165,6.1224,6.1308,6.1375,6.1514,6.1543,6.162,6.161,6.1699,6.1622,6.1617,6.1606,6.16,6.1606,6.1712,6.1715,6.1717,6.1718,0,6.0873,6.0878,6.0953,6.1031,6.1092,6.1153,6.1211,6.1253,6.1269,6.1329,6.1417,6.1469,6.1572,6.1654,6.173,6.1761,6.1741,6.1743,6.1764,6.1763,6.1751,6.1754,6.1498,6.1736,6.1734,6.1733,6.1732,6.1731,6.1018,6.1087,6.1143,6.1226,6.127,6.1324,6.1391,6.1419,6.1492,6.1576,6.1577,6.1672,6.1726,6.1826,6.1862,6.1935,6.1906,6.1939,6.1947,6.1954,6.1959,6.1743,6.1949,6.1949,6.1948,6.1948,6.1948,0,6.122,6.1255,6.1331,6.1412,6.1476,6.1454,6.1516,6.157,6.1654,6.1707,6.1774,6.1872,6.1951,6.1987,6.2064,6.2115,6.2108,6.2135,6.2129,6.2136,6.1982,6.1953,6.2139,6.2139,6.2139,6.2139,6.2139,6.2139,6.1333,6.1446,6.1458,6.1593,6.1627,6.1719,6.1756,6.1805,6.1847,6.1958,6.2023,6.2047,6.2092,6.2171,6.2242,6.225,6.2277,6.2308,6.2312,6.2167,6.2147,6.2128,6.2101,6.2315,6.2315,6.2459,6.246,6.2461]},{"header":{"parameterUnit":"m.s-1","parameterCategory":1,"la1":30.2991,"la2":30.254,"lo1":-89.0895,"lo2":-89.0444,"dy":0.0017,"dx":0.0017,"nx":28,"ny":28,"refTime":"2023-08-10T21:00:00:Z","depth":0,"parameterNumber":3,"parameterNumberName":"V-component_of_WINDS"},"data":[0,0,0,0,0,0,0,0,0,0,0,0,0,0,0,0,0,0,0,0,0,0,0,0,0,0,0,0,0,0,0,0,0,0,0,0,0,0,0,0,0,0,0,0,0,0,0,0,0,0,0,0,0,0,0,0,0,0,4.4246,4.4247,0,4.436,4.4361,4.4362,4.4349,4.4348,4.4346,4.4344,4.4458,4.4462,4.4467,0,0,0,0,0,0,0,0,0,0,0,0,0,4.4014,4.4018,4.4246,4.4247,4.4249,4.4359,4.4361,4.4362,4.435,4.4348,4.4345,4.4343,4.4456,4.4461,4.4467,0,0,0,0,0,0,0,0,0,0,0,0,0,4.4119,4.4019,4.4246,4.4256,4.4258,4.4359,4.4361,4.4363,4.435,4.4348,4.4345,4.4342,4.4454,4.4461,4.4468,4.4565,0,0,4.4489,4.4492,0,0,0,0,0,0,0,0,4.4113,4.4128,4.4253,4.4255,4.4258,4.4338,4.432,4.4431,4.4351,4.4315,4.4344,4.4341,4.442,4.4429,4.4456,4.4571,4.4575,4.449,4.4494,4.4497,4.4499,0,0,0,0,0,0,0,4.4106,4.4123,4.4291,4.4255,4.4258,4.4253,4.4265,4.4341,4.4381,4.4318,4.4317,4.4331,4.442,4.445,4.4459,4.4577,4.449,4.4496,4.45,4.4503,4.4774,4.4777,0,0,0,0,0,0,4.4097,4.4117,4.4287,4.4294,4.4178,4.426,4.4273,4.4315,4.438,4.4388,4.4333,4.433,4.4439,4.4451,4.4463,4.458,4.4497,4.4504,4.4508,4.4771,4.4774,4.4778,0,0,0,0,0,0,4.4092,4.4112,4.4283,4.4205,4.4227,4.4266,4.4313,4.4318,4.4348,4.4392,4.4398,4.4356,4.4437,4.4453,4.4539,4.4583,4.4507,4.4513,4.4767,4.4772,4.4776,4.4815,0,0,0,0,0,0,4.4085,4.411,4.4149,4.4206,4.4231,4.4359,4.4316,4.4322,4.436,4.4357,4.4415,4.4422,4.4436,4.4529,4.4546,4.4592,4.4519,4.4764,4.4769,4.4775,4.481,4.482,4.4829,0,0,0,0,0,4.4077,4.4155,4.4151,4.4172,4.428,4.4361,4.4375,4.4391,4.4364,4.4402,4.443,4.442,4.4576,4.4538,4.4558,4.4606,4.4761,4.4768,4.4774,4.4805,4.4818,4.4829,0,0,0,0,0,0,4.4102,4.4163,4.4159,4.4259,4.4305,4.4359,4.4408,4.4404,4.4459,4.4453,4.447,4.4483,4.457,4.4596,4.4553,4.4702,4.4664,4.4675,4.4681,4.4694,4.4703,4.4695,4.4525,0,0,0,0,0,4.4119,4.4181,4.4231,4.4313,4.4337,4.4369,4.4404,4.4413,4.4461,4.448,4.4514,4.456,4.4619,4.4658,4.4715,4.4813,4.4825,4.4856,4.4865,4.4873,4.4882,4.4934,4.4947,4.48,4.48,4.4799,0,0,4.4155,4.4196,4.4234,4.4319,4.4356,4.4418,4.4385,4.4453,4.4499,4.449,4.4574,4.46,4.4652,4.4745,4.4787,4.477,4.4925,4.4881,4.4887,4.4892,4.4942,4.4956,4.4968,4.4804,4.4803,4.4803,0,0,4.4252,4.429,4.4362,4.44,4.4456,4.4476,4.4493,4.4548,4.4565,4.4649,4.4644,4.4697,4.4799,4.4836,4.4868,4.4977,4.4969,4.4995,4.5044,4.5094,4.5106,4.5116,4.5154,4.5167,4.5004,4.5004,4.5004,0,4.4289,4.4384,4.44,4.4468,4.4505,4.45,4.4572,4.4607,4.4679,4.4703,4.4683,4.4809,4.4844,4.4944,4.497,4.4997,4.5015,4.4988,4.5103,4.5114,4.5124,4.5159,4.5173,4.5006,4.5006,4.5006,4.5005,0,4.4426,4.4491,4.4543,4.4612,4.4655,4.4725,4.4749,4.479,4.4794,4.4815,4.49,4.4941,4.5006,4.503,4.5034,4.513,4.5117,4.51,4.5063,4.514,4.5174,4.5188,4.501,4.5009,4.5008,4.5008,0,0,4.4543,4.4619,4.4638,4.4668,4.4729,4.4779,4.4847,4.4911,4.4944,4.4993,4.505,4.5135,4.5119,4.5155,4.5163,4.5208,4.5288,4.5185,4.5186,4.5201,4.5394,4.5406,4.5422,4.5284,4.5286,4.5289,4.5389,0,4.4645,4.4767,4.4783,4.4891,4.495,4.4945,4.5004,4.5047,4.5068,4.512,4.5144,4.5203,4.5178,4.52,4.5244,4.527,4.5327,4.5262,4.5335,4.5337,4.5321,4.544,4.5453,4.5546,4.5403,4.5405,4.5406,0,4.4781,4.4834,4.4948,4.4998,4.5023,4.5077,4.5135,4.5185,4.5232,4.5245,4.5284,4.5286,4.5355,4.5315,4.5408,4.5364,4.5394,4.5411,4.5415,4.5422,4.5376,4.5449,4.5577,4.559,4.5428,4.5426,4.5424,0,4.4853,4.4952,4.5033,4.5059,4.5121,4.5158,4.5185,4.5229,4.5266,4.5316,4.5339,4.5397,4.5428,4.5471,4.5488,4.5457,4.558,4.5541,4.559,4.559,4.5616,4.5614,4.575,4.5637,4.5637,4.5636,4.5636,0,4.4965,4.5035,4.5066,4.5116,4.5192,4.5208,4.5283,4.5308,4.5348,4.54,4.54,4.5449,4.5468,4.552,4.5533,4.5607,4.5622,4.5632,4.5635,4.5632,4.563,4.5652,4.5645,4.564,4.5639,4.5639,4.5638,0,4.5059,4.5083,4.517,4.522,4.5235,4.5289,4.5331,4.5378,4.5398,4.5465,4.5481,4.5513,4.5573,4.5594,4.5668,4.5676,4.5762,4.576,4.5747,4.5747,4.5794,4.5789,4.5948,4.5968,4.5843,4.5844,4.5845,0,4.5128,4.5182,4.5238,4.5273,4.5302,4.5359,4.5396,4.5413,4.5451,4.5507,4.5547,4.5607,4.5657,4.5753,4.5782,4.5837,4.5835,4.5887,4.5844,4.5839,4.5835,4.5831,4.5835,4.5895,4.5896,4.5897,4.5898,0,4.5249,4.5258,4.5312,4.5369,4.5413,4.546,4.5504,4.5533,4.5556,4.5598,4.5661,4.5699,4.5773,4.5833,4.5889,4.5915,4.591,4.5912,4.5926,4.5923,4.5913,4.5918,4.5768,4.5908,4.5907,4.5906,4.5906,4.5905,4.5332,4.5378,4.5424,4.5484,4.5519,4.556,4.5606,4.5632,4.5684,4.5747,4.5753,4.582,4.5863,4.5938,4.5967,4.6018,4.6003,4.6024,4.6029,4.6034,4.6036,4.5905,4.6028,4.6028,4.6028,4.6027,4.6027,0,4.5451,4.548,4.5535,4.5597,4.5643,4.5635,4.5683,4.5722,4.5781,4.5822,4.587,4.594,4.5997,4.603,4.6086,4.6121,4.612,4.6135,4.6132,4.6138,4.6047,4.6029,4.6135,4.6135,4.6135,4.6135,4.6135,4.6135,4.5519,4.5596,4.561,4.5704,4.5732,4.5798,4.5826,4.5863,4.5896,4.5975,4.6022,4.6043,4.608,4.6139,4.619,4.6198,4.6218,4.6235,4.6241,4.6155,4.6144,4.6134,4.6117,4.6239,4.6239,4.6327,4.6328,4.6328]}]]